Weather History for KHIE - November, 2013

Change the Weather History Date:

Tuesday, November 19, 2013

  Actual Average Record
Temperature  
Mean Temperature 33 °F -  
Max Temperature 39 °F 39 °F 60 °F (2001)
Min Temperature 27 °F 21 °F 6 °F (2007)
Degree Days  
Heating Degree Days 32    
Moisture  
Dew Point 17 °F    
Average Humidity 59    
Maximum Humidity 72    
Minimum Humidity 50    
Precipitation  
Precipitation 0.00 in - - ()
Sea Level Pressure  
Sea Level Pressure 30.02 in    
Wind  
Wind Speed 11 mph (WNW)    
Max Wind Speed 18 mph    
Max Gust Speed 34 mph    
Visibility 9 miles    
Events Snow    
Averages and records for this station are not official NWS values.
T = Trace of Precipitation, MM = Missing Value Source: NWS Daily Summary

Daily Weather History Graph

Daily Weather History Graph

Search for Another Location

Airport or City:

Trip Planner

Search our weather history database for the weather conditions in past years. The results will help you decide how hot, cold, wet, or windy it might be!

Date:

Astronomy

Nov. 19, 2013 Rise Set
Actual Time 6:47 AM EST 4:15 PM EST
Civil Twilight 6:15 AM EST 4:46 PM EST
Nautical Twilight 5:40 AM EST 5:22 PM EST
Astronomical Twilight 5:05 AM EST 5:56 PM EST
Moon 6:03 PM EST (11/19) 8:25 AM EST (11/19)
Length of Visible Light 10h 31m
Length of Day
9h 27m
Waning Gibbous, 96% of the Moon is Illuminated
Nov 19
Waning Gibbous
Nov 25
Last Quarter
Dec 2
New
Dec 9
First Quarter
Dec 17
Full

Hourly Weather History & Observations

Time (EST) Temp. Windchill Dew Point Humidity Pressure Visibility Wind Dir Wind Speed Gust Speed Precip Events Conditions
12:52 AM 39.0 °F 31.4 °F 28.0 °F 65% 29.61 in 10.0 mi West 12.7 mph - 0.00 in   Overcast
1:52 AM 39.0 °F 33.4 °F 24.1 °F 55% 29.62 in 10.0 mi WSW 8.1 mph - N/A   Overcast
2:52 AM 37.0 °F 31.6 °F 25.0 °F 62% 29.65 in 10.0 mi WSW 6.9 mph - N/A   Mostly Cloudy
3:52 AM 32.0 °F 20.5 °F 19.9 °F 61% 29.70 in 10.0 mi WNW 18.4 mph 34.5 mph 0.00 in   Overcast
4:52 AM 32.0 °F 20.8 °F 18.0 °F 56% 29.75 in 10.0 mi WNW 17.3 mph 27.6 mph N/A   Overcast
5:52 AM 30.9 °F 21.7 °F 16.0 °F 54% 29.78 in 10.0 mi WNW 11.5 mph 23.0 mph N/A   Overcast
6:52 AM 30.0 °F 18.3 °F 15.1 °F 54% 29.83 in 10.0 mi WNW 17.3 mph 26.5 mph N/A   Overcast
7:52 AM 28.9 °F 18.6 °F 17.1 °F 61% 29.87 in 6.0 mi West 12.7 mph 26.5 mph 0.00 in Snow Light Snow
8:52 AM 30.0 °F 19.5 °F 17.1 °F 59% 29.89 in 7.0 mi West 13.8 mph 24.2 mph 0.00 in Snow Light Snow
9:52 AM 30.0 °F 18.7 °F 15.1 °F 54% 29.93 in 10.0 mi WNW 16.1 mph 32.2 mph 0.00 in   Overcast
10:52 AM 30.9 °F 20.7 °F 16.0 °F 54% 29.94 in 10.0 mi WNW 13.8 mph 25.3 mph N/A   Overcast
11:52 AM 30.9 °F 20.7 °F 14.0 °F 50% 29.96 in 10.0 mi WNW 13.8 mph 24.2 mph N/A   Overcast
12:52 PM 30.9 °F 19.8 °F 16.0 °F 54% 29.99 in 10.0 mi West 16.1 mph - N/A   Overcast
1:52 PM 30.0 °F 21.1 °F 14.0 °F 51% 30.01 in 10.0 mi WNW 10.4 mph 23.0 mph N/A   Overcast
2:52 PM 30.0 °F 24.1 °F 14.0 °F 51% 30.05 in 10.0 mi WNW 5.8 mph 23.0 mph 0.00 in   Overcast
3:52 PM 30.0 °F 23.2 °F 14.0 °F 51% 30.09 in 10.0 mi Variable 6.9 mph - N/A   Overcast
4:52 PM 28.9 °F 21.9 °F 15.1 °F 56% 30.13 in 10.0 mi West 6.9 mph - N/A   Overcast
5:52 PM 28.9 °F 21.1 °F 15.1 °F 56% 30.17 in 10.0 mi NW 8.1 mph 18.4 mph N/A   Overcast
6:52 PM 28.9 °F 22.8 °F 15.1 °F 56% 30.19 in 10.0 mi WSW 5.8 mph - N/A   Overcast
7:52 PM 28.0 °F 20.0 °F 17.1 °F 63% 30.22 in 7.0 mi West 8.1 mph 16.1 mph 0.00 in Snow Light Snow
8:52 PM 28.0 °F 20.8 °F 16.0 °F 61% 30.25 in 10.0 mi Variable 6.9 mph 16.1 mph 0.00 in   Overcast
9:52 PM 28.0 °F 20.8 °F 17.1 °F 63% 30.27 in 10.0 mi West 6.9 mph - N/A   Overcast
10:22 PM 27.0 °F 17.3 °F 18.0 °F 69% 30.23 in 2.5 mi NNW 10.4 mph - 0.00 in Snow Light Snow
10:25 PM 27.0 °F 19.5 °F 19.0 °F 72% 30.24 in 1.8 mi North 6.9 mph - 0.00 in Snow Light Snow
10:29 PM 27.0 °F 18.7 °F 19.0 °F 72% 30.24 in 2.0 mi NNW 8.1 mph - 0.00 in Snow Light Snow
10:38 PM 27.0 °F 19.5 °F 18.0 °F 69% 30.24 in 9.0 mi NNW 6.9 mph - 0.00 in   Overcast
10:52 PM 27.0 °F 20.5 °F 17.1 °F 66% 30.30 in 10.0 mi North 5.8 mph - 0.00 in   Overcast
11:52 PM 27.0 °F 18.7 °F 12.9 °F 56% 30.31 in - WNW 8.1 mph - N/A   Overcast